Danville, IN

1:13 PM EST on November 20, 2017 (GMT -0500)
Vermilion County

Weather History for KDNV - March, 2013

Change the Weather History Date:

Monday, March 25, 2013

  Actual Average (KLAF) Record (KLAF)
Temperature  
Mean Temperature 31 °F -  
Max Temperature 34 °F 49 °F 80 °F (2007)
Min Temperature 28 °F 32 °F 5 °F (1974)
Degree Days  
Heating Degree Days 34    
Moisture  
Dew Point 29 °F    
Average Humidity 91    
Maximum Humidity 95    
Minimum Humidity 79    
Precipitation  
Precipitation 0.06 in - - ()
Sea Level Pressure  
Sea Level Pressure 29.80 in    
Wind  
Wind Speed 17 mph (NW)    
Max Wind Speed 25 mph    
Max Gust Speed 31 mph    
Visibility 6 miles    
Events Snow    
Averages and records for this station are not official NWS values.
T = Trace of Precipitation, MM = Missing Value Source: NWS Daily Summary

Daily Weather History Graph

Daily Weather History Graph

Search for Another Location

Airport or City:

Trip Planner

Search our weather history database for the weather conditions in past years. The results will help you decide how hot, cold, wet, or windy it might be!

Date:

Astronomy

Mar. 25, 2013 Rise Set
Actual Time 6:45 AM CDT 7:07 PM CDT
Civil Twilight 6:18 AM CDT 7:35 PM CDT
Nautical Twilight 5:46 AM CDT 8:07 PM CDT
Astronomical Twilight 5:13 AM CDT 8:39 PM CDT
Moon 5:39 PM CDT (3/25) 5:28 AM CDT (3/25)
Length of Visible Light 13h 17m
Length of Day
12h 22m
Waxing Gibbous, 96% of the Moon is Illuminated
Mar 25
Waxing Gibbous
Mar 27
Full
Apr 2
Last Quarter
Apr 10
New
Apr 18
First Quarter

Hourly Weather History & Observations

Time (CDT) Temp. Windchill Dew Point Humidity Pressure Visibility Wind Dir Wind Speed Gust Speed Precip Events Conditions
12:15 AM 30.9 °F 17.8 °F 29.7 °F 95% 29.58 in 1.8 mi North 23.0 mph - N/A Snow Light Snow
12:35 AM 30.2 °F 16.2 °F 28.9 °F 95% 29.58 in 2.0 mi North 25.3 mph 31.1 mph N/A Snow Light Snow
12:55 AM 30.0 °F 16.9 °F 28.4 °F 94% 29.59 in 3.0 mi North 21.9 mph - N/A Snow Light Snow
1:15 AM 29.7 °F 16.1 °F 28.2 °F 94% 29.59 in 3.0 mi North 23.0 mph - N/A Snow Light Snow
1:35 AM 29.7 °F 17.4 °F 28.2 °F 94% 29.61 in 3.0 mi North 18.4 mph 25.3 mph N/A Snow Light Snow
1:55 AM 29.5 °F 17.6 °F 28.0 °F 94% 29.61 in 2.5 mi North 17.3 mph - N/A Snow Light Snow
2:15 AM 29.3 °F 17.0 °F 28.0 °F 95% 29.61 in 3.0 mi North 18.4 mph - N/A Snow Light Snow
2:35 AM 29.3 °F 17.0 °F 28.0 °F 95% 29.61 in 3.0 mi North 18.4 mph - N/A Snow Light Snow
2:55 AM 29.3 °F 16.6 °F 27.9 °F 94% 29.62 in 3.0 mi North 19.6 mph - N/A Snow Light Snow
3:15 AM 29.1 °F 16.7 °F 27.7 °F 94% 29.62 in 3.0 mi North 18.4 mph - N/A Snow Light Snow
3:35 AM 29.1 °F 16.7 °F 27.5 °F 94% 29.62 in 3.0 mi North 18.4 mph - N/A Snow Light Snow
3:55 AM 29.1 °F 17.9 °F 27.5 °F 94% 29.62 in 2.0 mi NNW 15.0 mph - N/A Snow Light Snow
4:15 AM 28.9 °F 18.2 °F 27.5 °F 94% 29.62 in 2.0 mi NNW 13.8 mph - N/A Snow Light Snow
4:35 AM 29.1 °F 18.4 °F 27.5 °F 94% 29.63 in 2.5 mi NNW 13.8 mph - N/A Snow Light Snow
4:55 AM 29.1 °F 18.9 °F 27.5 °F 94% 29.63 in 3.0 mi NNW 12.7 mph - N/A Snow Light Snow
5:15 AM 28.8 °F 19.0 °F 27.1 °F 94% 29.64 in 4.0 mi NNW 11.5 mph 18.4 mph N/A Snow Light Snow
5:35 AM 28.8 °F 19.0 °F 27.0 °F 93% 29.65 in 10.0 mi NNW 11.5 mph - N/A   Overcast
5:55 AM 28.9 °F 18.2 °F 27.1 °F 93% 29.65 in 5.0 mi NW 13.8 mph 18.4 mph N/A   Overcast
6:15 AM 28.9 °F 18.2 °F 27.3 °F 94% 29.65 in 5.0 mi NW 13.8 mph - N/A Snow Light Snow
6:35 AM 30.2 °F 19.3 °F 28.4 °F 93% 29.66 in 4.0 mi NW 15.0 mph 19.6 mph N/A Snow Light Snow
6:55 AM 29.3 °F 19.1 °F 27.9 °F 94% 29.67 in 1.5 mi NW 12.7 mph - N/A Snow Light Snow
7:15 AM 29.3 °F 19.6 °F 28.0 °F 95% 29.67 in 1.2 mi NW 11.5 mph - N/A Snow Light Snow
7:35 AM 29.8 °F 19.8 °F 28.4 °F 94% 29.68 in 1.5 mi NW 12.7 mph - N/A Snow Light Snow
7:55 AM 30.2 °F 19.3 °F 28.4 °F 93% 29.69 in 1.8 mi NW 15.0 mph - N/A Snow Light Snow
8:15 AM 29.8 °F 17.3 °F 28.0 °F 93% 29.70 in 2.0 mi NW 19.6 mph 26.5 mph N/A Snow Light Snow
8:35 AM 29.3 °F 17.0 °F 27.5 °F 93% 29.70 in 1.2 mi NW 18.4 mph 27.6 mph N/A Snow Light Snow
8:55 AM 29.3 °F 15.9 °F 27.3 °F 92% 29.71 in 2.5 mi NW 21.9 mph 26.5 mph N/A Snow Light Snow
9:15 AM 29.3 °F 15.3 °F 27.1 °F 92% 29.72 in 2.5 mi NW 24.2 mph 28.8 mph N/A Snow Light Snow
9:35 AM 28.9 °F 15.8 °F 26.6 °F 91% 29.73 in 2.0 mi NW 20.7 mph 29.9 mph N/A Snow Light Snow
9:55 AM 29.3 °F 17.0 °F 27.1 °F 92% 29.74 in 3.0 mi NW 18.4 mph 25.3 mph N/A   Overcast
10:15 AM 29.8 °F 17.7 °F 26.6 °F 88% 29.75 in 7.0 mi NW 18.4 mph 27.6 mph N/A   Overcast
10:35 AM 29.8 °F 17.3 °F 26.6 °F 88% 29.76 in 7.0 mi NW 19.6 mph 29.9 mph N/A   Overcast
10:55 AM 30.2 °F 17.8 °F 26.6 °F 86% 29.77 in 10.0 mi NW 19.6 mph 26.5 mph N/A   Overcast
11:15 AM 30.4 °F 18.7 °F 27.3 °F 88% 29.77 in 7.0 mi NW 17.3 mph 27.6 mph N/A   Overcast
11:35 AM 30.2 °F 17.8 °F 27.3 °F 89% 29.78 in 7.0 mi NW 19.6 mph 26.5 mph N/A   Overcast
11:55 AM 30.6 °F 19.0 °F 27.5 °F 88% 29.78 in 7.0 mi NW 17.3 mph 26.5 mph N/A   Overcast
12:15 PM 31.1 °F 18.6 °F 27.5 °F 87% 29.79 in 10.0 mi NW 20.7 mph 26.5 mph N/A   Overcast
12:35 PM 32.0 °F 20.8 °F 28.2 °F 86% 29.79 in 10.0 mi NW 17.3 mph 26.5 mph N/A   Mostly Cloudy
12:55 PM 32.7 °F 21.1 °F 28.9 °F 86% 29.79 in 10.0 mi NW 19.6 mph - N/A   Scattered Clouds
1:15 PM 32.9 °F 21.3 °F 29.1 °F 86% 29.80 in 10.0 mi NW 19.6 mph 26.5 mph 0.03 in   Mostly Cloudy
1:35 PM 33.1 °F 22.6 °F 29.3 °F 86% 29.80 in 10.0 mi NW 16.1 mph 20.7 mph 0.05 in   Overcast
1:55 PM 34.2 °F 22.6 °F 29.8 °F 84% 29.81 in 10.0 mi NW 20.7 mph 26.5 mph 0.05 in   Overcast
2:15 PM 34.2 °F 23.6 °F 30.0 °F 85% 29.81 in 10.0 mi NW 17.3 mph 24.2 mph N/A   Mostly Cloudy
2:35 PM 34.2 °F 23.3 °F 30.0 °F 85% 29.82 in 10.0 mi NW 18.4 mph 21.9 mph N/A   Overcast
2:55 PM 34.5 °F 24.8 °F 30.0 °F 84% 29.83 in 10.0 mi NW 15.0 mph 20.7 mph N/A   Overcast
3:15 PM 34.9 °F 24.6 °F 30.0 °F 82% 29.84 in 10.0 mi NW 17.3 mph 23.0 mph N/A   Mostly Cloudy
3:35 PM 34.5 °F 24.5 °F 30.0 °F 84% 29.85 in 7.0 mi NW 16.1 mph 23.0 mph N/A Snow Light Snow
3:55 PM 34.0 °F 22.7 °F 30.2 °F 86% 29.86 in 5.0 mi NW 19.6 mph 25.3 mph N/A Snow Light Snow
4:15 PM 34.3 °F 24.6 °F 30.6 °F 86% 29.88 in 10.0 mi NW 15.0 mph 21.9 mph N/A   Overcast
4:35 PM 33.8 °F 23.2 °F 30.6 °F 88% 29.89 in 5.0 mi NNW 17.3 mph 23.0 mph N/A Snow Light Snow
4:55 PM 33.4 °F 25.4 °F 30.9 °F 90% 29.90 in 3.0 mi NNW 10.4 mph - N/A Snow Light Snow
5:15 PM 33.1 °F 25.5 °F 30.7 °F 91% 29.90 in 2.5 mi NNW 9.2 mph - N/A Snow Light Snow
5:35 PM 32.9 °F 23.7 °F 31.5 °F 94% 29.91 in 5.0 mi NNW 12.7 mph - N/A Snow Light Snow
5:55 PM 32.9 °F 23.7 °F 31.1 °F 93% 29.93 in 7.0 mi NW 12.7 mph - 0.01 in Snow Light Snow
6:15 PM 32.9 °F 23.7 °F 31.1 °F 93% 29.93 in 7.0 mi NW 12.7 mph - N/A Snow Light Snow
6:35 PM 32.9 °F 24.1 °F 31.1 °F 93% 29.95 in 5.0 mi NW 11.5 mph - N/A Snow Light Snow
6:55 PM 32.9 °F 24.1 °F 31.1 °F 93% 29.96 in 5.0 mi NW 11.5 mph - N/A Snow Light Snow
7:15 PM 32.5 °F 23.7 °F 30.7 °F 93% 29.97 in 10.0 mi NW 11.5 mph - N/A Snow Light Snow
7:35 PM 32.9 °F 24.1 °F 30.6 °F 91% 29.98 in 7.0 mi NW 11.5 mph 16.1 mph N/A Snow Light Snow
7:55 PM 32.4 °F 24.0 °F 30.7 °F 94% 29.99 in 7.0 mi NW 10.4 mph - N/A Snow Light Snow
8:15 PM 32.4 °F 23.0 °F 30.7 °F 94% 29.99 in 10.0 mi NNW 12.7 mph 19.6 mph N/A Snow Light Snow
8:35 PM 32.2 °F 23.2 °F 30.6 °F 94% 30.00 in 10.0 mi NNW 11.5 mph 18.4 mph N/A   Overcast
8:55 PM 32.0 °F 22.5 °F 30.2 °F 93% 30.01 in 10.0 mi NNW 12.7 mph 17.3 mph N/A   Overcast
9:15 PM 32.0 °F 22.5 °F 30.0 °F 92% 30.01 in 10.0 mi NNW 12.7 mph - N/A Snow Light Snow
9:35 PM 32.0 °F 22.1 °F 29.3 °F 90% 30.02 in 10.0 mi NNW 13.8 mph - N/A Snow Light Snow
9:55 PM 32.0 °F 23.6 °F 29.1 °F 89% 30.02 in 7.0 mi NW 10.4 mph - N/A Snow Light Snow
10:15 PM 32.0 °F 24.8 °F 29.1 °F 89% 30.03 in 7.0 mi NW 8.1 mph - N/A Snow Light Snow
10:35 PM 32.0 °F 25.6 °F 29.3 °F 90% 30.03 in 10.0 mi NW 6.9 mph - N/A   Overcast
10:55 PM 32.0 °F 24.8 °F 28.6 °F 87% 30.03 in 10.0 mi NW 8.1 mph - N/A   Overcast
11:15 PM 32.0 °F 24.2 °F 28.0 °F 85% 30.04 in 10.0 mi NW 9.2 mph - N/A   Overcast
11:35 PM 32.0 °F 24.2 °F 27.1 °F 82% 30.04 in 10.0 mi NNW 9.2 mph - N/A   Overcast
11:55 PM 32.0 °F 23.6 °F 26.2 °F 79% 30.04 in 10.0 mi NNW 10.4 mph - N/A   Overcast